Location: Asheville, NC
(35.6000°N, 82.5500°W)
Time: 00:27:34
(UTC-04:00)

BEESAT 3 - Pass Details

Date: 13 March 2018
Orbit: 499 x 517 km, 64.9° (Epoch: 18 June)

Event Time Altitude Azimuth Distance (km) Brightness Sun altitude
Rises 20:08:41 0° 205° (SSW) 2,609 ? -7.4°
Reaches altitude 10° 20:10:50 10° 203° (SSW) 1,729 ? -7.9°
Maximum altitude 20:14:42 77° 118° (ESE) 532 ? -8.7°
Drops below altitude 10° 20:18:36 10° 32° (NNE) 1,747 ? -9.5°
Sets 20:20:48 0° 31° (NNE) 2,639 ? -9.9°
